Theta_e
311 311 311 310 308 307 307 307 308 310 310 311 313 314 316 319 320 321 320 320 322 322 322 322 319 319 322 322 322 323 323 323 324 325 325 325 325 325 324 324 323 323 322 322 321 322 322 322 322 322 323 323 323 322 322 320 318 317 318 320 321 320 321
311 311 313 310 308 308 307 307 307 307 307 306 307 309 311 316 319 318 316 315 318 320 321 320 318 320 321 321 321 321 321 322 323 323 323 323 323 323 323 323 322 322 322 322 322 322 322 322 322 322 321 321 321 319 318 317 316 315 315 317 320 318 315
314 312 312 310 310 310 307 307 307 306 307 306 306 306 307 312 315 315 314 312 309 311 313 312 313 318 320 320 320 319 320 321 321 322 322 322 322 321 321 322 321 321 321 321 321 322 321 320 320 320 320 319 317 314 313 314 313 312 311 311 315 316 314
313 311 310 310 311 310 307 307 307 307 307 306 306 306 306 307 310 310 310 308 305 305 305 304 305 309 312 315 315 313 316 319 319 319 319 317 318 318 319 319 320 321 320 320 320 320 319 319 319 318 315 313 312 311 312 312 311 309 309 309 311 312 313
311 309 309 309 310 309 308 307 307 307 307 307 306 306 306 306 306 307 306 306 306 305 305 304 304 304 304 306 306 306 309 310 310 310 309 308 309 310 313 313 314 317 317 318 319 318 318 317 314 310 308 309 310 311 310 310 311 311 312 313 314 314 314
311 310 309 309 309 309 309 308 307 307 307 307 307 306 306 306 306 306 306 306 306 306 306 306 306 306 305 305 305 305 306 305 305 306 305 305 305 305 307 306 307 309 310 311 311 311 310 309 307 306 307 309 309 308 308 310 312 314 314 315 315 316 316
310 310 310 309 310 310 310 310 310 309 307 306 307 307 307 306 306 306 306 306 306 306 306 306 306 306 306 306 306 306 306 306 306 306 306 306 305 305 305 304 304 305 305 305 305 305 305 306 306 306 306 307 307 306 307 310 313 314 314 315 315 316 317
311 311 311 310 310 310 311 312 312 312 311 308 307 307 307 307 307 307 307 306 306 306 306 307 306 307 306 306 306 306 306 306 306 306 306 305 305 305 305 304 304 304 303 304 303 303 304 304 304 304 303 304 305 305 306 308 312 314 315 315 315 316 317
314 313 312 311 312 313 312 312 313 314 314 313 311 308 307 307 307 307 307 307 307 307 306 306 307 306 306 306 306 306 306 306 305 305 305 305 304 304 304 304 303 303 303 303 303 303 302 303 303 302 303 304 304 304 304 304 307 311 314 314 315 316 317
316 314 313 313 314 316 315 314 314 315 315 315 314 311 308 308 307 307 307 307 307 307 307 307 307 307 306 306 306 305 305 305 305 305 304 304 304 304 304 304 304 304 303 303 303 303 303 303 302 302 303 304 304 306 305 304 303 306 309 310 312 315 316
316 315 316 316 317 317 318 317 316 316 315 315 315 313 311 309 308 308 308 307 307 307 307 307 307 307 306 306 306 305 305 305 305 305 305 304 305 305 305 305 305 305 304 304 304 303 303 302 302 302 303 303 303 304 305 304 304 304 305 305 307 309 311
317 316 318 319 318 318 319 319 318 317 316 316 316 314 313 312 310 309 308 308 308 308 308 307 307 307 307 307 306 306 306 306 306 306 306 306 306 306 306 306 306 306 306 305 305 304 304 303 303 304 305 305 304 305 305 305 304 304 303 303 303 304 304
317 317 319 320 319 318 319 319 319 318 317 317 317 316 315 314 312 311 310 309 309 309 309 308 308 308 308 308 308 307 307 307 307 307 307 307 306 307 307 307 307 307 307 307 307 307 307 306 306 306 306 307 306 306 307 306 306 305 303 303 303 303 302
319 318 318 319 320 319 319 319 319 319 318 318 318 317 317 317 316 315 313 312 311 310 310 309 309 309 309 309 309 308 308 308 308 308 308 308 307 307 307 307 307 307 306 307 307 307 307 308 307 306 307 307 307 307 307 307 306 305 304 304 304 303 303
320 320 319 319 320 319 319 320 319 319 319 318 318 318 318 318 318 318 317 316 315 314 313 312 311 310 309 310 309 309 309 309 309 309 308 309 308 308 308 308 308 307 306 306 306 306 306 306 306 306 307 307 306 306 306 305 305 304 305 305 304 303 303
321 322 321 321 320 319 320 320 319 319 319 318 319 318 319 319 318 319 319 318 318 317 317 316 315 314 312 311 310 310 310 309 309 309 309 309 309 309 309 308 308 308 307 306 306 305 306 306 306 306 306 305 305 304 303 303 304 304 304 304 304 303 302
323 323 322 321 321 320 320 320 320 319 319 319 319 319 320 320 319 319 319 319 318 318 318 318 318 317 316 315 313 312 311 311 310 310 310 309 309 309 309 309 309 308 308 307 306 306 306 307 306 306 305 304 304 303 302 302 303 304 304 303 303 302 301
323 323 323 322 321 320 320 320 320 319 319 319 318 319 320 320 320 320 320 319 319 318 318 318 318 319 318 318 317 315 314 313 311 310 310 310 309 309 309 309 309 308 308 308 307 306 306 306 306 306 305 304 303 303 303 302 302 302 302 301 301 300 299
323 323 323 322 321 320 320 320 320 320 319 318 318 318 319 318 319 319 319 319 319 319 319 318 318 319 319 319 318 317 316 315 314 312 311 310 310 310 310 309 309 309 308 308 306 305 305 305 305 304 304 304 304 304 303 302 301 300 299 299 298 298 298
323 323 323 322 321 321 321 320 320 320 320 319 318 317 318 318 318 318 318 318 319 319 319 319 319 319 319 319 319 318 318 317 315 314 313 312 311 310 310 310 309 309 308 307 306 305 304 304 303 303 303 304 304 304 302 301 299 298 297 297 297 297 297
322 322 323 323 323 322 321 319 320 321 321 320 318 317 317 316 316 316 316 316 317 317 318 319 319 319 319 319 319 319 318 317 316 315 314 313 312 311 311 310 310 309 309 307 306 305 304 303 303 302 303 303 302 301 300 299 298 297 296 296 297 297 297
319 320 321 321 320 320 319 318 319 320 319 318 316 316 316 316 316 315 316 316 316 317 318 318 319 319 319 319 319 319 318 317 316 315 315 314 313 312 312 311 311 310 310 308 307 305 304 303 303 303 302 301 301 300 299 298 298 297 297 297 297 297 297
314 315 315 314 313 313 314 314 314 315 314 314 312 312 313 314 313 313 314 313 313 315 318 318 318 319 319 319 319 319 319 318 317 316 315 314 314 313 312 312 312 311 310 308 307 305 304 304 304 303 302 300 300 300 299 298 298 297 297 297 296 296 296
310 310 310 310 310 310 310 310 310 310 310 310 312 314 314 313 312 313 315 316 317 318 320 320 319 319 319 319 319 319 319 318 317 316 315 315 315 315 314 313 312 311 309 308 307 305 304 304 304 302 301 300 300 300 299 298 298 297 296 296 296 296 296
308 309 310 310 308 308 309 308 307 308 308 308 310 311 312 312 313 313 315 316 317 318 319 320 321 321 320 319 319 319 319 318 318 317 316 315 316 315 314 313 312 310 309 308 306 305 304 304 303 302 301 300 300 299 299 298 297 296 296 296 296 295 296
307 308 309 309 309 309 311 312 310 309 310 312 311 310 309 310 309 310 310 310 309 310 311 313 316 319 321 321 320 319 318 318 318 317 316 316 316 314 314 313 311 310 309 308 306 304 303 303 302 301 300 300 299 299 298 298 297 297 296 296 296 296 296
308 307 307 307 306 306 308 312 314 314 314 316 317 315 315 314 312 310 310 309 307 306 305 306 308 312 318 321 321 319 319 318 317 316 316 315 314 313 312 311 310 308 308 307 305 303 302 301 301 300 300 299 299 299 299 298 297 297 296 296 296 296 296
308 307 305 304 304 303 304 306 310 313 314 315 316 315 317 317 315 314 313 311 307 305 305 306 307 310 315 319 320 319 318 317 316 316 314 313 312 311 310 309 308 307 306 305 303 302 302 301 300 300 300 299 299 299 299 299 298 297 297 296 296 296 296
309 307 305 304 303 303 303 303 304 306 308 310 312 312 313 315 316 316 315 314 311 308 308 309 309 310 313 316 318 318 317 316 315 315 313 311 310 310 309 308 307 305 304 303 303 302 301 300 300 300 300 300 300 300 300 299 299 298 297 297 296 296 296
310 308 306 305 304 303 303 302 302 302 303 305 308 310 311 313 314 315 315 315 313 311 310 310 311 312 313 315 317 317 316 314 313 313 311 310 310 309 307 307 306 305 304 304 303 302 301 301 300 301 300 300 300 299 299 299 298 298 297 297 296 296 296
309 308 308 307 305 304 303 303 302 301 301 303 305 309 312 313 313 313 314 313 312 312 311 311 311 312 314 315 316 316 315 313 312 312 311 309 309 307 306 306 305 304 304 303 302 301 301 301 301 300 300 300 299 299 299 298 298 297 297 296 296 296 296
308 308 308 307 305 304 304 304 302 301 301 301 303 308 312 313 313 313 313 312 311 311 311 311 311 312 313 314 315 315 314 312 311 310 309 308 307 307 306 305 304 303 303 302 302 302 301 301 301 300 300 299 299 298 298 297 297 297 296 296 296 296 295
307 307 306 306 305 305 305 304 304 302 301 301 303 308 312 312 312 312 312 312 312 312 311 311 311 312 313 314 313 311 310 310 311 310 309 308 307 307 305 303 302 302 302 301 301 301 301 301 300 299 299 298 298 298 297 297 297 296 296 295 295 294 294
305 305 306 306 306 306 305 304 304 304 302 300 303 308 311 311 311 312 312 312 312 312 312 311 311 311 312 312 310 308 308 309 310 310 309 307 306 305 303 302 301 301 300 300 300 299 299 299 298 298 298 298 297 297 296 296 295 295 294 294 294 294 293
305 305 305 306 307 307 306 305 304 303 302 301 303 307 310 310 311 312 312 312 312 312 312 312 311 311 311 310 308 307 308 309 309 309 309 306 303 302 301 301 300 300 300 299 299 298 298 298 297 297 296 296 295 295 295 294 294 294 293 293 293 293 292
305 305 305 305 306 307 306 306 305 304 303 304 305 307 309 310 310 311 311 312 312 312 312 312 311 311 309 308 307 307 308 308 308 307 306 304 302 301 301 301 300 300 299 298 297 296 296 296 295 295 295 294 294 294 294 293 293 293 292 292 292 292 292
305 305 305 304 304 305 305 305 305 305 305 306 307 309 310 310 311 311 311 311 311 311 311 310 310 309 308 307 307 307 307 307 306 304 303 301 300 299 299 299 298 297 296 295 294 294 294 294 294 294 294 294 294 293 293 292 292 292 292 292 292 292 292
Wind_Speed
14 15 14 13 13 14 14 14 14 13 12 11 11 12 13 15 14 12 12 12 13 12 12 10 7 7 8 8 8 7 5 4 6 7 7 7 7 7 8 9 9 8 8 7 7 7 7 6 6 4 4 5 5 5 6 7 8 10 11 10 8 7 7
13 14 13 12 13 14 14 14 14 14 13 12 12 11 12 14 14 13 11 12 13 15 14 11 9 9 8 8 7 6 5 4 5 6 6 7 6 6 6 6 6 5 4 3 3 2 2 2 2 2 3 4 4 4 5 6 6 8 9 10 11 8 5
13 14 14 13 14 14 14 15 14 14 13 12 12 12 12 14 14 13 11 9 10 12 13 11 11 12 11 9 8 6 6 5 6 6 6 8 8 7 8 9 9 7 6 5 5 3 2 2 1 1 1 2 4 5 4 4 6 8 8 8 9 9 7
14 15 15 14 14 13 14 15 14 15 14 13 13 13 13 13 12 11 9 9 10 11 12 11 11 11 11 11 10 8 8 6 5 5 5 6 7 7 7 8 8 8 7 6 6 5 4 2 2 3 5 6 7 8 6 6 7 6 5 5 5 6 6
13 15 14 14 13 12 14 15 15 15 14 14 14 13 13 12 11 10 9 9 11 11 11 12 11 10 10 9 7 6 7 6 6 5 5 5 6 6 6 6 6 6 6 6 5 5 5 5 5 6 7 7 8 7 6 5 1 3 6 9 8 5 3
13 14 13 13 12 11 12 15 15 14 14 14 13 13 13 12 11 10 10 9 8 9 9 10 10 10 10 9 9 8 8 7 6 6 5 4 4 4 3 3 3 4 5 6 7 7 7 7 7 6 6 6 7 6 4 1 4 6 7 11 11 6 1
14 14 13 12 11 10 11 12 13 13 13 13 13 13 12 12 12 11 10 9 8 7 7 7 7 8 8 7 7 7 6 6 5 5 4 3 3 2 2 1 1 1 1 2 3 3 4 5 6 6 6 6 7 7 5 3 3 3 4 8 7 5 3
14 14 12 11 11 11 11 11 11 12 12 12 12 12 11 11 11 11 10 9 8 8 6 5 6 7 7 6 5 5 5 5 4 4 4 3 3 3 3 2 2 2 2 2 1 1 2 3 4 5 7 7 7 7 6 5 4 4 2 3 2 2 5
15 14 13 12 11 11 11 9 9 8 8 10 10 10 11 11 10 10 10 9 8 8 7 6 5 6 6 5 4 4 4 4 4 4 5 5 5 5 5 4 4 4 3 3 2 1 1 1 2 2 4 5 6 7 7 5 2 3 4 3 3 1 2
17 16 14 14 13 12 10 7 7 6 4 5 7 7 9 9 9 9 9 9 9 8 7 6 6 5 5 4 4 4 4 5 5 5 6 5 6 6 5 5 5 5 4 3 2 2 2 2 2 2 2 3 5 6 7 8 6 2 3 5 6 5 3
19 17 15 14 13 13 12 8 7 6 4 3 3 3 5 6 7 7 7 7 7 7 8 7 6 6 4 4 4 3 4 4 5 5 6 5 6 5 5 5 5 5 5 4 2 2 2 2 2 3 4 4 5 6 7 9 8 5 4 4 6 7 8
19 17 15 14 13 13 14 12 9 7 6 5 4 2 2 2 3 3 4 5 5 5 6 6 6 6 5 4 3 3 3 3 3 4 4 4 5 4 4 4 4 5 5 4 2 2 2 2 3 5 6 5 5 5 6 8 9 8 7 7 6 6 9
17 17 16 16 15 14 14 14 11 9 8 8 7 5 3 2 1 1 2 2 2 3 3 4 4 4 5 5 4 3 3 2 2 2 2 2 2 2 2 2 3 4 4 4 4 4 3 3 3 4 5 5 5 6 6 8 11 11 10 10 10 8 8
16 17 17 17 16 15 14 14 12 9 8 8 7 7 6 5 4 3 3 2 2 2 3 3 3 4 4 4 4 4 4 4 3 3 3 3 2 3 3 3 2 2 2 3 4 5 5 5 4 4 4 5 5 6 8 10 13 15 13 11 12 11 9
18 18 17 17 19 19 17 16 15 12 12 10 8 8 8 8 7 7 6 5 5 4 5 5 6 7 7 7 7 6 6 6 5 4 4 4 4 4 5 5 3 1 1 1 2 3 4 4 4 5 5 6 6 7 8 11 14 17 16 14 13 13 13
21 20 17 17 20 23 21 19 17 16 15 14 11 9 8 9 9 10 10 9 9 8 8 8 8 9 9 9 9 9 9 8 8 8 7 6 6 5 6 6 6 4 3 2 2 3 4 3 3 5 6 7 8 9 10 12 14 16 18 18 16 16 17
24 23 21 18 19 21 20 19 18 17 16 15 14 11 9 10 10 11 12 11 12 13 13 12 12 12 12 12 12 12 11 10 10 11 11 10 9 8 8 8 8 8 6 5 4 4 5 5 5 6 7 8 9 11 12 13 14 16 18 20 19 19 19
24 24 24 22 20 19 18 18 18 18 18 17 16 15 14 13 12 12 13 13 15 17 17 16 16 16 15 15 14 14 14 13 13 13 14 13 12 12 11 10 9 10 10 8 7 7 7 7 7 8 9 11 12 13 14 14 16 17 19 21 20 19 19
27 25 24 23 23 22 20 18 17 19 19 19 19 20 19 17 16 16 16 16 16 18 20 20 20 20 20 19 18 17 17 16 15 16 16 15 15 14 14 12 11 12 12 11 10 10 10 9 9 9 11 13 14 15 15 15 16 16 18 19 20 20 19
22 22 21 21 22 21 20 18 18 19 20 21 22 23 22 20 19 18 18 18 18 18 19 22 23 23 23 22 21 21 20 19 18 18 18 17 17 16 15 14 14 14 14 14 13 12 12 12 11 11 13 14 15 15 16 16 16 16 17 18 18 19 19
16 17 17 16 16 16 17 18 19 20 20 19 21 23 23 22 22 23 25 24 22 21 21 23 25 25 25 25 24 23 23 22 21 20 20 19 18 18 17 16 16 16 16 14 13 13 13 13 13 13 14 15 16 16 16 16 16 17 17 18 18 19 20
11 13 13 11 11 10 11 12 13 14 14 13 14 16 18 18 18 18 20 20 18 20 23 26 26 26 27 27 27 25 24 24 23 22 22 21 20 20 19 18 18 19 18 15 14 14 14 14 14 15 16 16 16 16 16 16 16 16 16 18 19 20 21
10 10 10 10 9 9 9 10 10 10 11 11 11 12 13 14 14 13 13 14 13 16 22 26 28 28 29 29 29 28 27 25 24 24 24 24 23 22 22 21 21 20 19 16 15 15 15 14 15 16 16 17 17 17 16 15 15 15 17 18 19 20 22
10 10 10 10 9 8 8 8 9 9 9 9 10 10 11 11 12 13 14 15 16 18 21 24 27 29 30 30 30 30 29 27 26 27 27 26 25 24 24 24 22 20 19 17 16 15 15 15 16 16 17 18 18 17 16 16 16 17 19 21 21 22 23
9 9 8 8 7 5 5 5 6 6 7 7 7 7 8 9 10 13 14 15 16 18 20 21 23 26 28 29 30 31 31 30 29 29 30 29 28 27 26 24 22 20 20 19 17 16 16 17 17 17 17 18 19 18 17 18 20 22 23 24 25 25 25
10 10 9 9 7 6 7 6 5 5 6 7 7 7 8 9 9 11 12 14 15 16 17 19 20 21 23 24 25 28 30 31 30 31 31 31 30 29 26 23 21 20 21 20 19 18 18 19 19 19 18 18 19 19 19 21 23 24 25 26 27 27 26
10 10 9 8 7 8 9 10 9 8 8 9 9 9 9 11 11 11 13 15 16 16 16 16 17 19 20 20 22 24 27 29 29 30 31 31 29 26 23 20 20 20 20 19 19 19 19 20 20 20 20 20 20 21 22 24 25 26 27 27 28 28 27
10 8 7 5 5 5 6 8 9 10 11 12 12 12 12 13 13 13 14 14 14 13 13 13 15 17 17 18 19 21 25 27 28 30 31 29 25 21 19 19 19 18 17 17 19 20 21 20 20 21 21 22 23 24 25 26 27 28 29 29 29 29 29
7 5 3 2 2 3 2 2 3 5 7 9 10 11 13 13 13 13 13 13 11 11 12 12 13 14 15 15 15 17 22 26 28 29 29 25 21 20 20 20 19 17 17 19 20 20 20 19 20 21 22 23 24 25 27 28 29 30 30 30 29 29 30
7 6 4 2 1 2 3 2 2 2 4 6 8 9 10 12 14 14 13 13 13 13 13 13 14 14 15 14 13 16 21 24 25 25 24 21 21 21 20 19 18 18 19 19 19 18 18 19 20 22 23 25 26 27 28 29 31 32 32 32 32 32 32
9 7 7 5 5 5 5 4 4 5 5 6 8 9 10 12 14 15 15 16 16 16 15 15 15 15 14 14 14 16 19 21 22 22 22 21 21 20 18 17 17 17 17 17 17 18 19 21 23 24 26 27 28 29 30 31 33 35 35 36 36 37 37
9 9 9 9 10 10 8 7 7 7 6 7 8 10 11 13 15 16 17 18 18 18 17 17 16 16 15 14 14 15 18 19 21 22 23 22 21 19 17 15 14 14 15 16 18 20 23 24 25 26 27 28 29 31 32 34 37 38 39 40 41 41 41
9 11 12 13 12 12 11 11 11 10 10 9 9 11 13 15 16 17 18 19 19 19 18 17 16 16 15 14 14 15 17 19 21 22 23 22 20 19 17 15 13 14 15 16 18 21 23 24 25 26 27 29 31 33 35 37 39 40 41 41 41 39 38
10 10 11 11 12 13 14 15 15 15 15 12 11 14 15 16 18 18 19 20 20 20 19 17 16 16 15 14 14 16 17 18 20 22 22 20 17 17 17 16 15 16 17 17 19 21 22 24 25 27 29 32 34 36 38 39 38 37 36 35 33 33 31
14 14 13 12 13 15 16 18 19 19 19 15 13 16 18 19 20 21 21 21 21 20 19 18 17 16 15 15 14 14 15 17 19 21 21 19 16 16 18 18 18 19 19 20 21 23 24 26 28 30 32 33 34 34 34 33 31 29 28 27 27 28 27
16 16 15 15 15 16 18 20 21 21 20 16 15 18 20 21 23 23 23 22 21 20 18 17 16 16 15 14 13 12 14 17 19 19 19 18 18 19 20 22 22 22 21 22 24 26 27 28 29 30 30 29 28 27 25 24 23 23 23 23 24 25 26
18 18 18 18 18 19 21 21 22 22 19 16 17 20 22 23 23 24 24 22 20 18 16 16 15 15 14 12 12 13 15 17 18 18 18 19 20 20 21 22 22 22 22 23 25 26 26 26 26 25 24 23 23 22 21 21 22 22 23 24 24 25 26
Wind_Direction
147 140 135 127 126 128 124 124 127 131 136 136 139 149 160 166 166 164 163 164 161 156 154 157 168 178 171 160 149 151 165 178 179 186 198 202 205 215 222 229 237 244 255 262 268 281 293 300 309 326 347 342 336 325 309 300 298 288 272 264 262 259 260
146 143 143 142 139 134 124 119 118 117 117 116 122 130 144 156 157 153 157 165 170 171 174 179 186 183 178 177 168 160 163 158 156 161 166 163 159 170 178 179 190 197 200 216 229 251 298 340 7 39 32 8 355 349 331 313 305 303 295 279 264 253 242
159 154 155 151 142 133 120 115 114 114 115 114 112 111 123 142 150 152 154 151 150 162 174 181 187 186 184 189 193 192 184 166 153 146 138 138 141 152 158 155 159 157 148 147 153 152 143 138 146 122 331 306 307 307 307 298 288 291 298 294 276 267 254
167 163 160 154 141 131 124 121 118 118 118 117 116 112 114 127 139 146 146 133 121 128 138 142 156 172 181 193 206 210 200 186 169 157 149 151 157 168 169 165 168 167 163 161 161 165 164 185 223 259 270 272 279 281 281 286 292 300 316 331 319 295 282
166 164 162 154 144 135 131 129 124 122 122 120 121 121 119 121 126 126 123 118 114 114 115 115 119 127 137 152 160 161 165 166 160 156 159 164 173 189 193 194 199 197 198 200 203 211 221 240 257 268 272 272 272 280 293 293 309 56 41 28 14 348 303
162 159 162 155 147 138 128 127 125 123 124 124 123 123 124 125 124 123 120 115 110 108 108 107 107 107 108 109 109 108 112 116 117 119 124 128 140 170 188 199 217 221 228 235 243 252 258 262 270 274 274 280 286 289 292 245 112 89 65 52 37 22 283
160 155 161 156 148 137 121 119 121 122 123 124 125 124 125 127 127 127 125 122 119 112 108 110 110 108 105 101 101 99 98 98 94 95 102 101 109 117 111 102 95 99 171 239 266 290 301 299 305 314 309 299 294 291 280 245 157 133 98 80 58 40 55
166 159 161 158 151 135 122 118 119 119 121 122 124 126 127 128 127 127 127 126 125 122 117 114 112 112 112 108 106 106 104 103 101 101 100 100 109 115 116 117 105 97 102 101 84 15 343 331 332 336 333 325 316 309 299 278 225 204 175 113 122 69 67
178 170 166 159 154 138 126 124 120 113 113 115 119 125 129 129 128 128 129 129 129 129 127 120 112 113 117 119 117 119 115 107 106 106 103 104 107 110 118 124 122 114 100 94 94 82 64 20 7 1 338 329 331 335 334 331 307 234 254 257 235 208 94
191 184 172 158 158 150 138 133 129 127 121 110 109 118 123 125 127 130 133 134 135 134 130 125 120 119 123 128 128 126 122 119 117 111 108 109 106 106 108 110 113 108 87 71 61 40 38 24 7 7 336 314 320 330 333 340 352 349 288 287 280 269 244
200 193 176 160 162 165 161 162 158 161 173 150 130 125 120 119 121 128 137 139 140 142 139 135 132 130 132 135 130 127 132 135 130 121 119 119 114 108 106 100 97 96 87 72 44 22 26 21 13 15 5 342 328 325 322 325 333 341 328 303 289 284 277
202 196 186 174 174 174 173 179 181 185 194 194 199 202 138 122 115 123 136 143 146 150 152 150 147 144 144 145 138 134 139 137 130 132 137 135 127 122 115 108 101 96 92 83 72 79 88 77 57 45 33 15 358 348 335 325 320 322 324 312 296 292 288
200 193 191 191 189 183 180 185 191 197 203 206 217 229 230 223 221 185 167 169 168 173 181 174 174 178 171 170 173 173 177 171 166 189 195 181 171 172 162 145 131 103 85 74 60 52 53 60 61 51 34 13 1 351 339 330 320 318 326 321 308 303 294
200 194 195 198 196 189 185 186 187 196 204 212 229 244 252 256 259 261 260 254 238 239 250 243 240 243 233 224 220 216 220 219 220 228 232 245 254 248 242 225 188 128 81 56 41 28 14 11 12 10 360 344 339 335 329 323 314 311 318 322 316 314 309
198 199 198 196 194 189 185 181 180 187 194 201 222 248 264 268 267 274 279 280 278 271 266 266 265 265 267 263 258 256 248 243 257 264 253 254 269 276 269 260 247 204 169 2 15 9 355 352 337 311 313 315 308 304 299 295 295 300 308 317 319 320 321
196 198 192 185 187 188 189 189 188 188 189 194 202 218 249 266 275 285 288 286 288 288 280 273 268 268 272 271 269 270 266 259 266 274 273 268 269 275 273 270 274 272 264 285 317 326 323 321 297 281 288 299 297 290 286 285 289 296 303 309 313 315 316
195 198 196 192 191 193 194 196 199 198 198 202 201 201 219 242 264 281 283 282 286 291 289 283 279 274 272 273 270 269 270 267 263 266 271 270 266 268 266 263 267 271 272 273 278 292 300 305 308 305 302 303 303 300 297 292 289 289 293 299 304 307 308
197 197 198 201 203 206 204 203 207 210 214 218 212 202 204 216 232 245 252 260 272 283 286 283 282 279 275 274 271 267 269 267 262 260 263 263 261 263 267 267 267 270 274 277 280 286 295 302 308 311 310 307 305 303 302 297 291 287 287 291 297 302 304
200 202 202 204 207 211 211 212 216 219 227 234 224 207 202 212 223 224 226 235 247 265 276 276 277 278 275 272 269 267 266 266 263 260 260 260 258 258 264 267 267 271 276 281 284 285 290 294 297 299 303 304 304 304 303 300 296 293 291 292 296 301 304
199 206 208 208 209 212 214 220 226 228 234 240 230 215 209 215 223 225 230 237 242 250 262 267 269 270 270 269 267 265 265 263 262 260 260 260 258 258 262 264 266 270 273 275 278 281 285 288 289 293 299 302 304 304 303 301 299 297 296 296 299 302 304
210 215 220 219 216 218 223 228 232 235 239 240 235 230 229 231 237 242 244 247 251 251 250 254 260 262 263 264 263 262 262 260 260 259 258 258 256 258 260 261 265 268 270 274 278 279 281 282 283 291 299 303 302 301 299 298 298 297 297 298 301 303 304
212 215 219 214 204 200 203 208 214 219 222 225 228 230 230 229 235 243 243 241 247 250 244 244 249 254 257 259 259 259 258 256 256 255 254 253 253 256 259 263 269 270 271 277 280 278 278 280 286 294 299 300 299 298 296 295 296 296 297 300 302 303 302
191 197 197 193 189 183 179 186 194 197 204 216 224 221 217 217 220 223 223 223 233 245 244 243 245 247 251 255 256 255 254 253 252 251 250 249 251 257 263 268 272 272 272 275 276 275 276 282 290 295 297 297 297 296 294 294 296 298 300 302 303 304 305
175 182 184 184 186 187 188 195 199 201 209 219 221 218 219 228 233 230 227 229 236 244 247 247 246 246 248 253 256 254 252 252 251 249 248 248 253 260 266 270 271 269 270 273 273 271 274 283 291 294 295 296 295 294 296 299 304 308 309 310 310 311 312
173 173 174 176 177 183 192 196 196 197 203 208 211 216 221 228 235 235 235 239 243 246 249 250 249 249 250 252 256 256 254 253 252 250 248 250 255 259 261 265 267 267 270 275 276 275 279 285 291 294 294 294 293 296 302 308 312 315 316 315 315 316 317
179 172 170 174 177 181 185 189 201 208 206 213 224 234 238 237 239 242 245 251 256 256 256 256 256 255 255 256 257 257 255 253 251 249 248 249 250 251 254 259 262 266 272 278 280 280 283 287 291 294 295 294 295 300 304 308 311 314 316 316 314 313 315
178 175 174 177 176 179 184 187 195 203 207 214 222 232 243 247 250 255 256 257 260 260 260 262 261 260 260 261 262 258 252 247 245 244 243 242 242 244 249 255 259 264 270 275 278 279 282 287 292 294 295 296 298 300 301 303 307 310 312 312 309 308 311
185 183 178 174 161 157 172 181 190 200 208 216 221 225 234 246 255 258 257 258 256 253 254 257 260 263 264 262 263 261 252 243 240 241 238 235 235 241 248 253 257 261 264 267 270 274 280 285 288 290 292 294 296 296 296 299 303 305 306 306 305 305 307
206 208 193 174 138 112 104 134 183 210 221 229 233 232 232 240 252 259 263 269 265 255 254 259 264 270 273 270 269 266 254 243 237 236 234 233 237 245 249 253 256 256 255 257 262 268 274 277 279 282 284 286 288 289 290 294 296 297 298 299 299 299 300
226 242 251 253 285 331 334 347 340 298 270 255 253 253 244 239 245 253 261 270 273 270 271 273 273 276 278 274 269 263 253 242 236 236 237 242 248 249 248 252 255 255 256 260 266 272 276 277 278 280 281 283 285 286 288 291 292 292 294 295 294 294 294
238 247 251 256 283 302 303 309 317 316 306 282 263 259 254 247 247 250 252 258 265 270 273 275 273 270 269 266 260 257 253 246 242 243 244 245 247 248 251 255 259 262 265 269 273 277 280 281 280 280 282 284 285 287 289 291 292 293 293 292 292 291 291
233 238 249 268 286 290 286 293 308 313 305 291 274 259 253 251 251 251 251 254 258 263 268 271 266 260 258 258 255 257 258 255 250 247 245 244 244 246 251 256 261 266 267 267 270 273 274 275 275 277 280 282 284 287 289 291 291 292 292 292 292 292 291
237 247 259 270 278 279 279 287 296 301 300 289 271 255 250 251 253 254 256 257 259 263 267 268 264 257 253 253 255 260 262 260 256 251 248 248 247 247 248 249 251 255 256 259 263 265 267 270 273 276 280 283 286 289 291 291 292 293 293 294 295 295 296
243 254 262 263 259 262 274 283 286 292 297 287 262 249 250 253 254 256 257 258 260 261 263 265 263 256 249 249 257 263 262 259 258 256 252 248 246 244 242 239 239 244 249 255 260 264 269 273 276 280 283 286 289 290 292 292 293 294 295 296 298 300 301
254 255 257 256 249 249 261 272 277 284 289 284 261 247 248 251 252 254 256 256 257 258 261 262 258 251 249 254 258 259 258 256 256 254 249 242 234 232 234 236 240 246 252 259 266 270 275 278 281 284 286 288 290 291 292 294 296 298 300 303 305 307 310
256 251 249 251 252 251 254 261 268 276 280 274 258 249 249 249 250 252 253 253 254 256 257 255 250 248 252 256 254 253 253 251 249 247 242 234 228 229 236 242 248 255 262 270 275 277 280 283 285 287 288 291 294 296 298 300 303 305 306 308 311 314 317
253 251 251 253 257 259 259 261 266 270 270 261 252 251 252 250 250 252 253 253 253 252 251 251 250 252 254 249 244 246 248 246 244 242 237 233 232 237 244 251 258 267 273 276 279 281 284 286 288 291 295 299 303 306 306 306 306 307 308 311 314 317 317